DELTA 1 DEB, 10220

Orbit data source: Space-Track

DELTA 1 DEB, 10220 is space debris in LEO originally from a launch on Thu, 14 Jul 1977 UTC launched from the Air Force Eastern Test Range (AFETR). Debris objects in space refer to the collection of defunct objects orbiting the Earth. Examples of debris include non-operational satellites, rocket bodies, and fragments generated from explosions, collisions, or faulty payload assembly.

Loading next visibility...
Identifier
10220, 1977-065AX
Orbit
LEO
Country
Flag of USUS
Related business
Manufacturer
Unknown
Mission
Spacecraft
Bus & Motor
Unknown
Mass
Unknown
Launch date (UTC)
1977-07-14 (49 years ago)
Launch vehicle
Unknown
Launch site
Air Force Eastern Test Range (AFETR)
Object type
Payload
Rocket body
Debris
Shape & HBR
Unknown shape, 0.1 m
Radar Cross Section
Small (<0.1 m²)

Expand to show TLE details & history
Last TLE update: 21 hours ago

TLE from 21 hours ago
0 DELTA 1 DEB
1 10220U 77065AX  26132.52930352  .00007536  00000-0  22528-2 0  9995
2 10220  29.1360 314.6479 0352779 128.6407 234.6293 14.11223356371506
Epoch: 2026-05-12T12:42Z
TLE epoch observation values (Epoch: 2026-05-12T12:42:11.824Z)
Latitude
-0°
Longitude
-106.20375°
Altitude
1,007.067 km
Speed
7.272 km/s
True Right ascension
20h 58m 35s
True Declination
0° 00' 00"
Sunlit
Object was in daylight at epoch
Visualization orbit readout
Latitude
Unknown
Longitude
Unknown
Altitude
Unknown
Speed
Unknown
Apparent Right ascension
Unknown
Apparent Declination
Unknown
Sunlit
N/A
Visualization observer readout
Local Sidereal Time
18:21:09
Azimuth
Unknown
Elevation
Unknown
Doppler factor
Unknown
Orbital elements
Apogee altitude
1,114.441 km
Perigee altitude
603.81 km
Semi-major axis
7,237.262 km
Eccentricity
0.03528
Inclination
29.136°
RAAN
314.6479°
Arg. of periapsis
128.6407°
True anomaly
231.41672°
Mean anomaly
234.6293°
Eccentric anomaly
233.01473°
Mean motion
3.52518 °/min
Orbital period
102.12 mins
BSTAR
0.0022528
Loading maneuver chart data...
Computing Atmospheric mass density...

Documentation

Showing up to 5 results
|